When you browse on this site, cookies collect data to enhance your experience and personalize the content and advertising you see.
Visit our Privacy Policy to learn more. By continuing to use the site, you agree to this use of cookies and data.
  • In Spain
  • List of Countries
  • For 7 days
  • Water Temperature
  • Satellite Maps
  • Weather Map
  • Weather Widgets
  • user-avatar
    Login

    Hourly Weather Damascus

    Today, 19 December, Wednesday

    Time Temperature Precipitation Wind Pressure Humidity
    00:00 +12°C° 0 mm 1 mps 700 mmHg 86%
    01:00 +11°C° 0 mm 1 mps 700 mmHg 85%
    02:00 +10°C° 0 mm 2 mps 700 mmHg 84%
    03:00 +10°C° 0 mm 2 mps 700 mmHg 83%
    04:00 +9°C° 0 mm 2 mps 699 mmHg 82%
    05:00 +9°C° 0 mm 2 mps 699 mmHg 81%
    06:00 +9°C° 0 mm 2 mps 699 mmHg 78%
    07:00 +10°C° 0 mm 2 mps 699 mmHg 75%
    08:00 +10°C° 0 mm 2 mps 699 mmHg 71%
    09:00 +12°C° 0 mm 2 mps 699 mmHg 64%
    10:00 +13°C° 0 mm 3 mps 699 mmHg 57%
    11:00 +14°C° 0 mm 4 mps 699 mmHg 50%
    12:00 +14°C° 0.2 mm 4 mps 699 mmHg 52%
    13:00 +14°C° 0.2 mm 5 mps 698 mmHg 55%
    14:00 +14°C° 0.2 mm 6 mps 698 mmHg 57%
    15:00 +13°C° 0.7 mm 6 mps 698 mmHg 64%
    16:00 +11°C° 0.7 mm 6 mps 698 mmHg 71%
    17:00 +10°C° 0.7 mm 6 mps 697 mmHg 78%
    18:00 +10°C° 0.2 mm 6 mps 697 mmHg 79%
    19:00 +10°C° 0.2 mm 5 mps 697 mmHg 79%
    20:00 +9°C° 0.2 mm 5 mps 697 mmHg 80%
    21:00 +9°C° 0.6 mm 5 mps 697 mmHg 82%
    22:00 +9°C° 0.6 mm 5 mps 697 mmHg 83%
    23:00 +8°C° 0.6 mm 5 mps 697 mmHg 85%

    Tomorrow, 20 December, Thursday

    Time Temperature Precipitation Wind Pressure Humidity
    00:00 +8°C° 1.2 mm 5 mps 697 mmHg 87%
    01:00 +8°C° 1.2 mm 5 mps 697 mmHg 88%
    02:00 +8°C° 1.2 mm 4 mps 697 mmHg 89%
    03:00 +8°C° 1.6 mm 5 mps 697 mmHg 89%
    04:00 +8°C° 1.6 mm 5 mps 697 mmHg 88%
    05:00 +8°C° 1.6 mm 6 mps 697 mmHg 87%
    06:00 +9°C° 0.4 mm 6 mps 697 mmHg 85%
    07:00 +9°C° 0.4 mm 6 mps 698 mmHg 82%
    08:00 +9°C° 0.4 mm 5 mps 698 mmHg 80%
    09:00 +10°C° 0.1 mm 5 mps 699 mmHg 75%
    10:00 +10°C° 0.1 mm 5 mps 699 mmHg 71%
    11:00 +12°C° 0.1 mm 5 mps 699 mmHg 66%
    12:00 +12°C° 0 mm 5 mps 699 mmHg 65%
    13:00 +12°C° 0 mm 5 mps 699 mmHg 64%
    14:00 +13°C° 0 mm 5 mps 699 mmHg 63%
    15:00 +12°C° 0 mm 5 mps 700 mmHg 66%
    16:00 +11°C° 0 mm 4 mps 700 mmHg 69%
    17:00 +11°C° 0 mm 4 mps 700 mmHg 72%
    18:00 +10°C° 0 mm 4 mps 700 mmHg 75%
    19:00 +10°C° 0 mm 3 mps 701 mmHg 78%
    20:00 +9°C° 0 mm 3 mps 701 mmHg 80%
    21:00 +9°C° 0 mm 3 mps 701 mmHg 81%
    22:00 +9°C° 0 mm 3 mps 701 mmHg 82%
    23:00 +9°C° 0 mm 2 mps 701 mmHg 83%

    Day after tomorrow, 21 December, Friday

    Time Temperature Precipitation Wind Pressure Humidity
    00:00 +8°C° 0 mm 2 mps 702 mmHg 84%
    01:00 +8°C° 0 mm 2 mps 702 mmHg 85%
    02:00 +8°C° 0 mm 2 mps 702 mmHg 85%
    03:00 +8°C° 0 mm 2 mps 702 mmHg 86%
    04:00 +7°C° 0 mm 2 mps 702 mmHg 86%
    05:00 +8°C° 0 mm 1 mps 702 mmHg 87%
    06:00 +9°C° 0 mm 1 mps 702 mmHg 84%
    07:00 +9°C° 0 mm 1 mps 703 mmHg 81%
    08:00 +10°C° 0 mm 1 mps 703 mmHg 78%
    09:00 +11°C° 0 mm 1 mps 704 mmHg 72%
    10:00 +12°C° 0 mm 1 mps 704 mmHg 67%
    11:00 +13°C° 0 mm 1 mps 704 mmHg 61%
    12:00 +13°C° 0 mm 1 mps 704 mmHg 58%
    13:00 +14°C° 0 mm 1 mps 703 mmHg 56%
    14:00 +14°C° 0 mm 1 mps 703 mmHg 53%
    15:00 +14°C° 0 mm 1 mps 703 mmHg 56%
    16:00 +13°C° 0 mm 1 mps 703 mmHg 60%
    17:00 +12°C° 0 mm 1 mps 703 mmHg 63%
    18:00 +12°C° 0 mm 1 mps 703 mmHg 66%
    19:00 +11°C° 0 mm 1 mps 703 mmHg 69%
    20:00 +11°C° 0 mm 1 mps 704 mmHg 72%
    21:00 +10°C° 0 mm 1 mps 703 mmHg 73%
    22:00 +10°C° 0 mm 1 mps 703 mmHg 74%
    23:00 +10°C° 0 mm 1 mps 703 mmHg 75%

    22 December, Saturday

    Time Temperature Precipitation Wind Pressure Humidity
    00:00 +9°C° 0 mm 1 mps 703 mmHg 76%
    01:00 +9°C° 0 mm 1 mps 703 mmHg 76%
    02:00 +9°C° 0 mm 1 mps 702 mmHg 77%
    03:00 +8°C° 0 mm 1 mps 702 mmHg 77%
    04:00 +8°C° 0 mm 1 mps 702 mmHg 77%
    05:00 +8°C° 0 mm 1 mps 702 mmHg 78%
    06:00 +9°C° 0 mm 1 mps 702 mmHg 74%
    07:00 +9°C° 0 mm 1 mps 703 mmHg 71%
    08:00 +10°C° 0 mm 1 mps 703 mmHg 68%
    09:00 +11°C° 0 mm 1 mps 703 mmHg 62%
    10:00 +12°C° 0 mm 2 mps 703 mmHg 57%
    11:00 +14°C° 0 mm 2 mps 703 mmHg 52%
    12:00 +14°C° 0 mm 2 mps 703 mmHg 50%
    13:00 +14°C° 0 mm 2 mps 703 mmHg 49%
    14:00 +15°C° 0 mm 2 mps 702 mmHg 47%
    15:00 +14°C° 0 mm 2 mps 702 mmHg 51%
    16:00 +13°C° 0 mm 2 mps 702 mmHg 56%
    17:00 +12°C° 0 mm 2 mps 702 mmHg 60%
    18:00 +11°C° 0 mm 1 mps 702 mmHg 64%
    19:00 +11°C° 0 mm 1 mps 702 mmHg 68%
    20:00 +10°C° 0 mm 1 mps 702 mmHg 72%
    21:00 +10°C° 0 mm 1 mps 702 mmHg 73%
    22:00 +10°C° 0 mm 1 mps 702 mmHg 74%
    23:00 +9°C° 0 mm 1 mps 702 mmHg 76%

    23 December, Sunday

    Time Temperature Precipitation Wind Pressure Humidity
    00:00 +9°C° 0 mm 1 mps 702 mmHg 77%
    01:00 +9°C° 0 mm 1 mps 702 mmHg 77%
    02:00 +8°C° 0 mm 1 mps 701 mmHg 78%
    03:00 +8°C° 0 mm 1 mps 701 mmHg 79%
    04:00 +8°C° 0 mm 1 mps 701 mmHg 80%
    05:00 +8°C° 0 mm 1 mps 701 mmHg 81%
    06:00 +8°C° 0 mm 1 mps 702 mmHg 78%
    07:00 +9°C° 0 mm 1 mps 702 mmHg 74%
    08:00 +10°C° 0 mm 1 mps 703 mmHg 71%
    09:00 +11°C° 0 mm 1 mps 703 mmHg 66%
    10:00 +12°C° 0 mm 1 mps 703 mmHg 61%
    11:00 +13°C° 0 mm 1 mps 703 mmHg 56%
    12:00 +14°C° 0 mm 2 mps 703 mmHg 55%
    13:00 +14°C° 0 mm 2 mps 703 mmHg 54%
    14:00 +15°C° 0 mm 2 mps 702 mmHg 53%
    15:00 +14°C° 0 mm 2 mps 702 mmHg 58%
    16:00 +13°C° 0 mm 2 mps 702 mmHg 63%
    17:00 +12°C° 0 mm 2 mps 702 mmHg 68%
    18:00 +12°C° 0 mm 1 mps 702 mmHg 73%
    19:00 +11°C° 0 mm 1 mps 702 mmHg 77%
    20:00 +11°C° 0 mm 1 mps 702 mmHg 81%
    21:00 +10°C° 0 mm 1 mps 702 mmHg 83%
    22:00 +10°C° 0 mm 1 mps 702 mmHg 85%
    23:00 +10°C° 0 mm 1 mps 702 mmHg 87%

    24 December, Monday

    Time Temperature Precipitation Wind Pressure Humidity
    00:00 +9°C° 0 mm 1 mps 702 mmHg 88%
    01:00 +9°C° 0 mm 1 mps 702 mmHg 89%
    02:00 +9°C° 0 mm 1 mps 702 mmHg 89%
    03:00 +8°C° 0 mm 1 mps 701 mmHg 89%
    04:00 +8°C° 0 mm 1 mps 701 mmHg 89%
    05:00 +8°C° 0 mm 1 mps 701 mmHg 89%
    06:00 +9°C° 0 mm 1 mps 702 mmHg 85%
    07:00 +9°C° 0 mm 1 mps 702 mmHg 82%
    08:00 +10°C° 0 mm 1 mps 702 mmHg 78%
    09:00 +11°C° 0 mm 1 mps 702 mmHg 72%
    10:00 +12°C° 0 mm 1 mps 702 mmHg 65%
    11:00 +13°C° 0 mm 1 mps 702 mmHg 59%
    12:00 +14°C° 0 mm 1 mps 702 mmHg 56%
    13:00 +14°C° 0 mm 1 mps 701 mmHg 53%
    14:00 +15°C° 0 mm 2 mps 701 mmHg 50%
    15:00 +14°C° 0 mm 1 mps 701 mmHg 54%
    16:00 +13°C° 0 mm 1 mps 701 mmHg 59%
    17:00 +12°C° 0 mm 1 mps 700 mmHg 63%
    18:00 +12°C° 0 mm 1 mps 700 mmHg 66%
    19:00 +11°C° 0 mm 1 mps 700 mmHg 69%
    20:00 +11°C° 0 mm 1 mps 700 mmHg 72%
    21:00 +10°C° 0 mm 1 mps 700 mmHg 73%
    22:00 +10°C° 0 mm 1 mps 700 mmHg 74%
    23:00 +10°C° 0 mm 1 mps 700 mmHg 75%
    Show more